Location: Milton Keynes
(52.0316°N, 0.7531°W)
Time: 05:34:58
(UTC+00:00)

ISS - Visible Passes

Search period start: 17 February 2026 00:00
Search period end: 27 February 2026 00:00
Orbit: 413 x 428 km, 51.6° (Epoch: 16 February)

Date Brightness Start Highest point End Pass type
(mag) Time Alt. Az. Time Alt. Az. Time Alt. Az.
17 Feb -1.3 04:39:34 17° SE 04:39:34 17° SE 04:41:46 10° E visible
17 Feb -3.2 06:12:34 10° WSW 06:15:51 55° SSE 06:19:08 10° E visible
18 Feb -2.9 05:27:27 27° SSW 05:28:46 43° SSE 05:31:59 10° E visible
19 Feb -2.2 04:42:15 30° SE 04:42:15 30° SE 04:44:46 10° E visible
19 Feb -3.7 06:15:14 12° WSW 06:18:19 79° S 06:21:41 10° E visible
20 Feb -0.6 03:56:58 13° E 03:56:58 13° E 03:57:27 10° E visible
20 Feb -3.7 05:29:57 35° WSW 05:31:10 69° SSE 05:34:30 10° E visible
21 Feb -2.9 04:44:36 47° ESE 04:44:36 47° ESE 04:47:18 10° E visible
21 Feb -3.8 06:17:34 11° W 06:20:46 86° S 06:24:07 10° E visible
22 Feb -0.8 03:59:12 16° E 03:59:12 16° E 04:00:04 10° E visible
22 Feb -3.8 05:32:11 33° W 05:33:33 85° S 05:36:55 10° E visible
23 Feb -3.4 04:46:45 64° ESE 04:46:45 64° ESE 04:49:41 10° E visible
23 Feb -3.7 06:19:47 10° W 06:23:08 72° SSW 06:26:28 10° ESE visible
24 Feb -1.1 04:01:17 20° E 04:01:17 20° E 04:02:26 10° E visible
24 Feb -3.8 05:34:15 28° W 05:35:53 81° S 05:39:13 10° E visible
25 Feb -3.8 04:48:47 79° ESE 04:48:47 79° ESE 04:51:58 10° E visible
25 Feb -3.2 06:22:05 10° W 06:25:19 47° SSW 06:28:33 10° SE visible
26 Feb -1.3 04:03:19 22° E 04:03:19 22° E 04:04:40 10° E visible
26 Feb -3.6 05:36:17 24° W 05:38:05 59° SSW 05:41:23 10° ESE visible
